Theta_e
307 308 308 307 310 314 317 315 313 317 316 316 320 317 309 315 321 318 319 332 338 340 342 345 347 349 351 351 353 352 348 351 350 349 353 348 343 344 342 340 337 335 336 337 341 344 344 346 346 345 343 343 342 339 339 337 335 331 329 328 327 327 328 329 327 328 330 331 331 331 330 330 332 334 334 333 333 335 338 339 339 338 334 329 326 326 331 335 337 336 336 336 335 336 336 336 334
308 308 308 309 313 315 319 319 318 321 317 313 318 319 314 319 321 318 322 333 340 342 344 344 346 347 348 350 351 352 347 347 347 347 348 344 345 345 343 341 336 335 334 336 340 342 342 345 346 346 343 343 343 340 339 338 336 332 329 328 327 326 327 329 329 327 327 327 327 328 329 331 333 334 335 335 335 337 339 340 340 340 337 335 332 331 333 335 336 336 335 336 335 335 335 335 334
308 309 310 312 313 316 323 322 320 320 314 309 317 323 320 324 326 322 320 333 343 342 342 340 344 341 346 355 352 354 350 344 346 346 345 346 346 345 345 340 335 335 333 335 338 340 341 343 345 346 344 344 343 340 339 338 338 334 330 329 328 327 327 328 330 330 328 327 327 328 328 330 332 334 337 336 337 339 340 340 340 340 339 338 336 332 334 336 335 336 335 335 335 335 334 333 333
309 311 311 314 315 319 329 326 327 323 313 315 323 326 323 328 335 332 327 339 344 338 338 342 345 337 347 360 350 351 350 346 347 346 347 346 346 346 345 339 336 335 333 335 335 337 339 342 344 345 344 343 342 341 339 338 338 336 332 330 329 328 327 328 329 331 330 330 329 329 330 330 331 334 336 336 338 339 339 340 339 339 339 337 335 332 334 336 335 335 335 335 335 334 333 332 332
310 313 311 316 319 321 326 324 328 322 312 322 328 326 325 327 335 336 333 338 338 335 336 341 346 338 345 349 345 353 350 348 348 345 348 347 346 347 344 339 336 334 335 334 334 334 337 341 343 345 345 343 343 342 340 339 338 338 335 331 330 329 328 328 330 332 332 332 331 330 332 333 333 334 334 335 337 338 339 339 338 338 337 335 334 332 332 335 335 335 334 335 336 334 333 332 331
311 313 313 315 317 317 321 320 323 323 317 321 323 321 321 325 331 332 333 334 334 336 336 340 345 345 348 343 343 350 346 347 349 346 348 347 347 347 343 338 337 335 335 334 334 333 334 339 342 345 345 343 343 342 341 339 338 338 337 333 331 330 329 328 330 333 333 333 333 333 333 334 335 335 334 335 337 339 339 339 338 336 336 334 332 329 331 334 335 334 335 335 336 335 334 333 332
310 314 318 318 317 318 325 325 325 329 323 318 321 320 318 325 332 332 333 334 337 338 339 340 342 350 352 344 344 344 343 346 347 347 348 348 348 347 343 338 338 337 335 335 334 332 333 338 341 344 345 344 343 342 343 341 339 339 338 335 332 331 330 329 330 333 334 333 334 335 335 334 334 334 334 335 338 339 339 338 337 334 334 334 331 327 328 332 334 334 334 335 335 334 334 334 332
311 316 320 322 322 319 324 325 323 326 321 316 319 319 319 323 330 333 332 334 335 336 341 340 341 353 349 346 350 344 344 347 346 348 347 348 348 347 343 338 339 338 337 335 334 333 332 336 341 344 344 345 344 342 343 342 340 339 339 336 332 331 331 330 330 334 335 334 335 337 337 336 334 334 334 336 337 337 338 337 335 334 332 332 332 329 325 328 333 331 331 332 332 333 333 333 333
311 315 318 321 321 319 322 320 318 319 319 319 316 319 325 322 325 332 333 331 331 336 343 340 340 347 347 351 354 345 346 348 347 349 347 348 348 347 343 339 339 339 338 336 336 333 332 336 340 343 344 345 344 343 343 343 341 339 340 338 334 331 331 331 332 334 335 335 337 338 338 337 335 334 335 336 336 335 336 335 334 333 332 331 331 332 328 326 328 328 328 329 330 331 331 331 332
314 315 318 322 319 317 321 319 318 319 319 321 315 316 322 320 321 327 332 330 331 340 341 342 345 347 348 350 349 346 348 348 348 349 348 349 347 346 343 339 338 338 338 338 337 333 332 335 339 342 343 344 345 344 343 343 342 341 341 340 337 333 332 331 332 334 334 335 336 338 338 337 337 335 335 336 336 336 336 335 334 332 331 330 329 331 331 329 327 327 327 326 328 330 330 331 331
318 316 318 323 321 316 318 319 323 325 321 320 318 317 316 315 316 318 326 328 333 340 339 345 352 348 345 345 345 346 347 348 349 349 348 348 347 345 342 341 339 338 339 338 337 333 331 335 339 342 342 344 344 344 345 344 343 343 342 341 339 335 333 333 333 333 334 335 335 337 337 337 338 336 336 337 337 336 336 336 334 333 330 329 328 328 330 331 329 328 327 326 325 326 327 327 326
317 317 323 325 323 320 319 322 324 327 323 318 321 322 317 314 315 314 317 323 333 339 340 345 348 345 347 346 345 346 347 348 348 348 349 348 346 344 343 341 340 339 339 339 338 333 332 337 341 342 342 343 344 344 344 344 344 344 343 341 340 337 335 335 334 334 334 336 336 336 337 336 337 336 335 336 337 337 336 336 335 333 331 329 327 326 326 328 329 329 329 328 325 323 322 321 320
319 319 323 320 320 320 318 319 321 324 325 321 321 321 317 314 316 315 315 322 334 341 341 342 341 343 346 345 345 346 346 347 347 348 348 348 347 345 344 342 342 341 340 340 338 334 334 338 341 342 342 343 344 344 344 344 344 343 343 340 340 338 336 336 335 334 334 336 336 336 336 336 336 336 335 336 337 337 336 337 336 333 332 329 326 325 324 324 327 329 330 330 327 324 322 319 318
318 320 322 315 316 320 316 317 318 318 321 323 320 316 314 316 316 315 318 327 334 338 337 337 337 343 346 344 347 348 346 346 347 348 347 347 346 346 345 344 343 342 341 341 339 336 336 339 340 341 342 343 343 343 343 344 344 344 342 341 340 339 338 337 336 335 335 336 336 335 336 335 336 337 335 335 336 336 336 336 335 334 332 329 325 323 322 322 324 327 330 331 328 326 323 321 320
313 320 325 317 315 316 315 315 315 314 317 319 316 313 316 320 320 320 323 330 335 331 332 334 332 337 347 347 348 346 345 347 346 347 347 346 346 345 345 344 344 342 342 342 340 338 338 339 340 340 341 341 342 342 343 343 344 343 342 341 340 339 339 337 336 336 335 335 336 336 335 335 335 337 336 336 335 336 336 336 335 333 332 329 325 323 322 321 323 324 327 331 331 327 325 323 322
313 320 321 316 313 313 314 315 313 314 317 318 314 314 320 322 323 324 324 329 332 328 331 335 325 327 343 345 343 344 344 346 346 346 346 345 345 344 344 344 344 343 342 342 340 339 338 339 339 339 339 340 341 341 342 342 343 343 343 342 340 339 338 338 338 337 336 336 336 336 335 335 335 337 336 336 336 336 336 335 333 332 333 331 327 325 322 322 323 323 324 328 331 329 326 324 323
312 318 318 314 315 314 316 316 313 315 317 317 313 314 323 324 323 324 324 328 330 329 328 327 322 325 338 340 339 343 344 345 345 345 344 344 344 343 344 344 344 344 343 343 340 338 337 337 337 337 338 339 339 340 340 341 341 341 342 342 341 340 339 338 338 338 337 337 337 336 336 336 336 336 336 336 337 336 335 334 333 331 332 333 331 327 324 322 322 323 323 325 327 329 327 324 323
311 318 317 314 317 316 318 320 316 314 314 315 312 313 321 324 324 324 326 327 326 328 326 323 324 327 333 337 339 343 344 344 344 343 342 341 341 342 343 344 344 344 343 342 340 338 336 336 336 336 338 337 338 338 339 339 339 339 340 340 340 339 339 338 339 339 337 337 338 337 336 336 336 336 336 336 337 336 335 334 333 332 332 333 332 329 326 323 322 321 322 325 326 328 329 324 323
315 318 314 317 321 317 318 319 317 315 313 314 313 313 322 324 322 323 327 328 326 331 327 325 331 332 332 335 338 342 342 343 342 341 340 338 339 340 341 342 343 343 342 341 339 339 337 336 336 335 336 337 337 337 337 338 338 338 337 338 337 338 339 339 339 339 337 337 338 337 336 335 335 335 335 336 336 336 335 333 333 332 332 333 333 330 326 323 322 319 320 324 327 330 329 324 323
314 314 313 320 321 316 317 316 315 314 312 313 312 314 323 321 320 324 328 327 328 331 328 329 336 335 335 335 336 339 340 340 340 339 337 336 337 338 339 340 341 342 341 339 339 340 339 338 336 336 335 335 335 335 335 336 337 337 336 336 336 336 337 337 338 338 337 337 337 336 335 335 335 335 336 336 335 335 335 333 333 333 332 332 332 330 327 326 322 318 318 323 329 331 327 324 323
310 311 315 319 316 313 316 315 314 313 311 312 312 315 318 316 320 326 328 329 330 330 328 331 335 334 335 336 335 336 338 337 336 336 334 334 336 337 337 338 339 340 340 339 340 341 341 340 338 338 337 336 335 335 334 334 336 336 336 335 334 335 335 335 337 336 336 336 337 337 335 335 336 336 336 335 335 334 335 334 333 333 332 331 332 330 329 328 323 318 317 320 327 329 325 324 323
310 311 315 316 312 311 313 314 314 313 312 312 313 315 315 318 325 327 327 331 331 327 327 326 329 333 335 335 335 335 336 334 331 331 330 331 333 335 336 337 338 338 339 341 341 342 342 341 341 340 340 339 338 337 335 335 334 334 335 334 333 335 335 335 334 334 335 335 336 336 336 336 336 336 336 335 335 334 334 335 334 333 332 331 331 330 328 328 324 320 317 318 324 327 325 324 323
310 313 314 314 311 311 312 313 313 313 312 312 314 313 315 325 330 325 324 326 325 324 326 325 326 331 333 333 334 335 335 333 329 328 328 329 331 334 336 337 338 339 340 341 341 342 342 342 341 341 340 340 340 340 338 337 336 335 334 333 331 333 336 336 333 330 330 332 335 334 334 335 335 334 335 335 336 334 334 334 334 334 332 331 331 329 328 327 324 322 320 318 321 325 325 323 322
309 311 313 312 311 311 312 312 311 312 311 313 313 311 316 329 329 322 323 324 322 323 326 324 324 328 331 332 334 334 333 330 327 326 328 331 333 335 335 337 339 340 339 339 340 340 341 341 340 340 339 339 339 340 340 339 338 337 336 335 333 333 336 336 333 329 328 329 330 330 330 331 333 333 334 334 335 334 334 334 335 334 333 332 331 329 327 325 323 323 323 320 320 324 323 322 322
310 310 312 311 311 312 312 312 311 310 310 312 312 312 316 321 323 323 324 326 323 323 323 323 324 327 330 331 332 332 330 327 322 322 325 329 333 333 331 334 336 339 339 337 338 338 338 338 337 337 337 337 337 337 339 338 338 337 338 338 336 336 336 337 335 331 329 329 328 329 330 331 332 332 333 332 334 335 335 335 336 335 334 333 332 329 326 324 322 323 324 322 321 322 321 321 322
311 310 312 312 312 311 311 311 310 310 312 312 311 314 317 314 317 322 323 325 324 322 323 322 324 327 327 328 329 329 330 325 319 319 321 323 328 328 325 328 333 337 338 336 337 336 336 336 336 336 335 334 335 334 336 337 337 336 337 338 337 337 337 337 336 334 330 330 330 331 333 334 334 333 333 333 334 336 336 335 334 334 335 334 333 330 326 325 323 324 324 321 320 321 321 322 323
312 311 312 311 310 310 310 311 312 311 312 313 312 316 318 313 316 320 321 323 323 323 324 322 323 325 324 326 326 324 326 323 317 318 319 318 321 323 321 324 330 335 334 334 336 335 335 335 333 333 332 332 334 333 333 334 335 335 335 336 336 337 337 337 337 336 333 331 332 334 335 335 335 335 335 335 335 336 336 334 334 334 334 334 335 332 328 326 325 325 324 322 320 319 321 323 324
311 311 311 313 313 312 311 310 312 312 312 314 314 314 313 311 314 318 320 322 324 323 324 323 323 324 323 324 324 323 322 319 317 317 318 316 318 319 319 321 327 329 330 331 332 332 330 330 328 327 330 332 332 332 332 332 332 332 332 333 335 336 337 337 336 336 335 335 334 334 335 335 335 336 336 335 334 334 334 333 334 333 333 333 335 334 330 326 324 324 325 324 322 322 322 323 325
310 310 310 314 320 316 311 312 312 311 312 313 314 312 313 314 312 314 320 323 323 323 324 323 323 324 324 325 324 323 320 317 317 317 317 318 317 318 318 321 324 324 325 326 326 325 324 324 323 324 328 331 331 330 329 329 329 330 332 333 335 335 335 335 335 336 335 335 335 334 335 335 335 335 334 333 333 333 333 333 333 332 332 333 334 334 331 327 325 324 325 325 324 324 324 324 324
311 310 310 315 320 317 311 313 314 311 312 311 311 314 320 323 312 313 322 324 323 324 323 323 324 325 325 324 323 323 320 318 318 317 317 317 317 317 318 320 322 322 321 322 322 322 322 322 322 324 327 330 329 329 329 328 329 329 331 331 332 332 331 333 333 335 335 335 334 333 332 332 334 333 331 331 332 332 331 331 332 332 332 333 333 334 333 331 330 329 328 327 327 327 327 326 326
313 309 314 316 312 314 314 314 316 312 312 313 310 313 320 321 314 317 324 324 325 326 324 323 325 326 326 325 323 324 322 318 318 317 317 317 316 317 318 320 321 321 321 321 321 320 321 322 323 325 327 328 327 328 327 327 326 326 326 327 328 328 328 330 333 334 334 332 331 330 329 330 331 332 331 331 331 331 331 332 331 331 332 332 332 332 333 333 332 332 330 329 330 330 330 330 329
316 309 316 319 311 313 317 314 315 312 311 314 311 314 318 314 312 319 324 324 325 325 324 324 326 326 326 325 323 323 322 317 316 317 317 316 316 317 318 320 320 320 320 320 320 320 320 320 321 324 324 325 325 325 325 324 324 324 323 324 325 325 324 325 327 330 331 330 329 330 329 328 328 328 329 330 331 331 331 332 332 331 332 331 331 331 332 332 332 332 331 330 332 331 331 331 330
324 316 315 317 313 313 315 312 312 312 312 313 311 314 318 313 311 316 321 324 326 326 325 323 325 327 326 324 323 323 323 321 319 317 316 316 316 317 318 319 319 320 320 319 319 319 318 319 320 321 321 322 323 324 322 322 322 322 322 323 323 322 320 320 320 323 329 330 329 329 328 327 327 326 326 327 330 330 331 332 332 332 332 331 331 331 332 332 332 332 331 331 331 331 331 331 331
327 328 323 316 315 315 316 315 313 314 313 312 313 313 313 312 312 315 318 321 325 325 325 324 325 325 325 323 321 322 322 323 322 317 316 317 316 316 317 318 318 318 318 318 318 318 317 318 319 319 320 321 322 321 320 320 320 321 322 323 322 320 319 319 319 321 328 330 327 326 326 326 326 326 325 326 328 329 329 330 331 331 330 330 329 331 332 331 331 331 330 329 329 330 329 330 330
318 326 324 317 317 315 316 318 316 317 316 313 314 313 313 314 314 314 314 318 324 326 323 322 323 323 325 323 321 321 321 321 321 317 316 317 316 316 316 317 318 318 318 317 317 317 317 318 319 319 320 320 320 319 317 317 318 319 321 321 320 319 319 320 321 324 328 328 325 325 325 324 324 323 323 324 326 327 326 328 329 329 328 328 329 330 331 330 331 331 329 328 328 329 329 330 330
317 325 324 319 319 317 319 321 318 316 315 314 314 314 315 314 312 313 313 316 321 323 320 320 322 323 325 325 323 322 321 321 317 316 317 317 316 316 317 317 317 317 317 317 317 317 317 318 319 318 318 318 317 316 315 315 316 316 318 318 319 319 319 320 323 325 326 325 323 323 322 321 321 321 321 322 323 325 325 326 327 327 327 327 328 329 329 330 330 330 329 329 329 329 330 330 330
323 328 327 321 318 319 320 319 321 318 312 314 319 319 319 316 315 316 317 316 318 321 321 323 324 325 326 326 325 322 320 319 316 316 317 317 317 317 317 317 317 317 317 317 317 317 317 317 317 317 317 316 315 314 314 314 314 315 315 317 318 318 317 319 322 324 323 322 321 321 320 320 319 318 318 320 322 323 324 325 326 327 328 328 327 327 327 328 328 328 328 328 328 329 329 330 330
324 323 320 319 319 320 319 317 325 322 311 317 324 321 323 325 326 325 319 315 316 321 323 324 325 325 325 325 324 323 320 318 319 318 317 317 317 316 317 317 317 317 317 316 316 316 316 316 316 316 316 314 313 313 313 314 315 314 314 314 316 316 316 316 318 320 320 320 320 320 319 318 318 318 318 320 321 322 323 324 324 326 327 327 326 325 326 326 327 327 327 326 326 327 328 328 329
327 322 317 322 322 321 322 323 330 325 314 322 325 319 326 333 333 328 321 317 318 320 320 322 324 324 324 324 324 323 321 321 322 321 318 317 318 317 316 317 317 317 317 316 316 315 315 315 316 316 315 314 313 312 313 315 314 312 311 313 315 314 313 314 315 316 317 318 319 317 316 316 317 318 319 321 321 321 322 322 323 323 324 324 323 323 324 324 324 325 326 326 326 327 327 328 328
329 324 318 323 322 318 323 328 332 326 316 318 321 318 327 336 336 329 320 320 325 321 318 319 321 323 323 322 323 324 322 322 322 322 320 318 317 317 317 317 317 317 317 316 316 315 314 314 315 316 315 314 313 313 314 315 315 313 312 313 313 310 310 312 314 315 316 316 316 315 316 316 317 317 318 320 320 320 320 321 321 321 321 321 320 320 320 320 320 321 323 324 326 327 328 328 329
328 328 320 323 324 318 321 325 331 331 322 320 320 320 332 337 334 330 320 319 322 319 317 318 319 320 320 320 321 323 323 321 320 321 321 318 317 317 316 317 317 317 317 317 316 316 314 313 315 316 314 314 313 313 314 315 315 315 314 314 313 310 311 312 313 315 317 316 315 316 316 315 315 316 317 318 318 319 319 319 320 319 319 319 319 318 318 317 318 318 319 320 321 324 325 324 326
329 333 328 327 328 322 321 326 331 333 327 320 315 318 339 341 332 330 326 323 322 317 317 320 319 317 318 321 322 322 322 321 319 319 319 318 317 317 317 317 317 317 317 317 317 316 313 311 313 315 314 314 313 314 315 315 316 315 314 314 312 310 311 311 311 313 316 316 316 316 313 312 314 315 316 316 316 317 317 317 318 318 317 317 316 316 316 316 316 316 317 318 319 319 321 320 321
324 329 330 329 329 326 325 324 324 327 323 318 317 320 332 337 333 331 326 325 326 321 319 321 319 318 317 319 320 320 321 320 319 319 318 318 317 317 317 317 317 317 316 317 317 316 312 309 310 313 314 314 314 315 316 317 317 315 312 311 311 309 309 309 309 312 314 315 316 314 312 313 314 314 315 315 315 315 316 315 315 315 314 313 312 312 312 312 312 313 314 315 316 317 319 318 318
325 326 327 329 329 328 330 324 320 325 322 320 328 325 320 327 333 331 322 321 326 325 324 324 320 318 318 317 317 318 319 320 319 319 318 318 317 317 317 317 317 317 316 317 317 315 311 307 308 310 313 314 315 316 316 318 317 314 311 311 310 309 308 308 308 311 312 315 316 314 313 314 315 314 314 314 314 314 313 312 312 310 309 308 307 307 308 308 308 309 309 310 311 313 315 315 316
327 324 325 328 327 327 331 327 323 323 317 322 333 322 315 328 336 329 320 317 322 326 326 326 321 315 315 316 315 315 316 318 319 319 319 317 316 317 318 317 317 316 317 317 317 315 310 306 307 310 313 315 315 316 317 317 317 314 311 311 311 310 309 307 307 309 311 313 314 313 312 313 314 314 314 314 313 312 310 308 307 306 306 306 306 306 307 306 305 306 306 307 308 308 309 311 312
321 320 321 322 323 325 327 327 325 320 315 324 334 320 314 328 336 328 318 315 321 326 324 323 319 314 314 315 313 312 312 315 317 318 318 316 316 317 318 317 317 316 316 317 317 314 310 307 308 311 313 315 315 316 317 317 318 316 312 311 311 311 310 308 307 308 310 311 311 311 311 312 312 312 313 314 313 311 309 308 308 308 308 308 307 306 306 305 305 305 306 307 307 307 307 307 309
315 320 322 318 322 325 326 329 324 315 318 327 330 323 314 321 333 330 318 315 319 321 321 319 316 315 315 314 313 311 310 311 316 317 318 316 315 317 318 317 317 316 316 316 316 314 310 308 309 311 313 315 316 316 317 317 318 318 314 312 311 310 310 309 308 307 308 309 308 309 311 310 310 310 310 311 311 311 311 311 311 311 311 310 308 307 306 304 304 305 306 307 308 308 308 308 308
317 323 324 318 321 323 323 328 320 314 325 328 321 320 314 317 329 326 318 317 316 315 315 315 315 315 315 312 313 313 310 310 314 318 319 319 318 317 317 317 316 316 316 316 316 315 311 309 309 312 314 315 316 316 318 318 318 319 316 313 311 310 310 311 309 308 307 307 306 307 309 310 310 310 310 310 311 312 312 312 312 312 312 310 309 308 305 304 304 304 307 308 309 309 309 309 308
319 321 323 317 318 320 322 327 320 319 326 319 315 318 314 318 325 321 319 317 314 314 313 313 314 314 313 312 312 314 313 311 314 319 321 321 321 318 315 316 316 316 316 316 316 314 312 310 310 312 314 315 316 317 319 319 318 318 318 314 311 310 310 311 311 310 308 307 306 306 308 309 310 311 311 310 311 312 313 313 313 313 311 310 309 307 305 304 304 304 306 307 309 309 309 309 309
314 316 320 318 317 318 322 322 316 318 322 316 315 318 316 321 322 318 317 315 314 316 314 314 316 315 313 310 310 315 316 315 317 319 321 322 320 317 315 316 315 315 316 316 316 314 312 311 310 312 314 315 317 317 319 319 317 316 316 314 312 310 310 311 312 312 310 309 308 307 307 307 308 309 310 311 311 312 313 313 313 312 310 310 308 305 305 305 304 304 305 305 306 307 307 308 308
312 315 317 317 321 320 319 320 317 318 321 316 313 315 322 324 315 313 317 316 316 317 313 313 314 314 311 307 308 312 315 318 319 318 320 321 317 315 316 317 316 316 316 315 316 315 313 312 311 312 314 315 317 317 319 319 316 314 315 313 312 311 310 311 313 313 312 311 310 309 308 308 307 307 309 310 311 312 313 313 313 312 310 309 307 304 305 305 304 305 305 305 305 305 306 306 307
311 312 313 314 321 322 317 315 318 319 318 317 314 316 326 323 312 315 321 319 317 314 310 309 310 310 307 307 308 308 310 316 320 320 321 320 316 316 317 317 317 316 316 315 315 315 314 313 312 312 313 315 316 316 318 319 317 314 313 313 313 312 310 311 313 314 314 313 312 311 311 310 310 308 309 310 312 312 313 313 312 311 310 307 305 304 304 305 305 305 306 305 305 305 305 306 306
313 310 314 314 315 324 321 311 314 317 315 318 317 316 321 319 315 318 319 316 314 313 310 308 310 309 307 308 308 308 308 311 316 320 322 321 317 316 317 317 317 318 317 316 315 315 315 314 313 314 314 315 315 316 317 319 318 316 314 314 314 314 312 311 312 314 315 315 313 313 312 312 312 310 310 310 312 313 313 312 312 310 308 306 305 304 305 305 305 306 306 306 305 305 305 305 305
314 313 317 314 310 322 324 314 317 318 316 321 319 314 317 319 320 319 316 313 312 313 311 308 309 308 307 308 307 308 309 308 311 314 318 320 317 316 318 318 318 318 318 317 316 316 316 315 315 315 315 315 315 315 315 316 317 317 316 316 315 316 315 313 312 312 314 315 314 313 313 313 313 312 311 311 312 313 312 312 311 309 307 305 304 305 305 305 306 307 306 305 305 305 305 305 305
313 314 314 313 316 325 322 317 322 318 315 323 322 315 315 319 322 319 315 313 311 311 310 310 310 310 309 310 308 307 309 309 310 310 312 317 314 314 317 318 318 319 319 319 318 317 317 316 316 316 316 316 316 316 316 315 315 315 316 317 317 317 317 315 313 312 313 314 314 313 313 313 314 313 312 312 312 313 312 312 311 309 306 305 305 305 305 306 307 307 306 305 305 305 305 305 305
315 315 312 314 323 326 318 315 320 318 316 323 322 315 316 321 323 320 317 317 314 311 311 311 311 311 311 311 309 309 309 309 310 309 311 312 310 311 316 317 318 319 319 320 319 319 319 318 318 318 317 318 317 317 317 316 316 316 317 317 318 318 318 317 316 314 313 314 314 314 313 314 314 314 313 313 312 312 312 312 311 308 306 305 305 305 305 306 307 306 305 305 305 305 304 305 305
317 318 316 315 314 313 313 311 313 316 320 323 319 316 321 323 318 317 318 319 317 313 312 312 310 310 311 310 310 309 309 310 310 309 310 309 306 308 313 316 317 318 319 320 320 320 320 319 319 319 318 319 318 318 318 318 318 318 318 318 319 319 319 319 318 317 316 315 315 315 314 314 315 314 314 313 313 312 312 313 311 307 305 305 305 305 306 307 307 306 305 305 304 304 304 304 304
317 317 314 316 315 313 314 313 313 315 316 319 317 317 324 322 315 318 321 320 319 314 311 311 309 309 310 310 308 308 309 310 309 309 309 307 304 305 308 311 313 315 317 318 320 320 320 320 320 320 320 319 319 319 319 319 320 319 319 319 319 320 320 320 320 319 319 317 316 316 315 315 315 314 314 314 313 313 313 313 310 306 306 305 305 305 306 307 307 306 305 304 304 303 304 304 304
Wind_Speed
6 6 7 6 6 5 3 2 1 2 2 0 3 1 3 4 2 4 5 3 1 1 1 2 4 6 5 5 7 5 3 4 4 4 4 3 9 24 21 16 23 24 22 21 20 18 17 18 18 18 18 18 19 19 20 20 20 20 20 20 20 20 20 20 20 20 22 22 21 20 19 19 18 18 18 17 16 15 14 14 14 14 14 14 13 13 13 14 15 15 15 14 15 14 14 14 14
5 6 6 4 3 1 2 3 2 3 4 1 4 3 4 3 1 4 5 2 2 3 3 5 6 6 5 7 6 4 4 4 2 2 0 5 16 20 16 18 24 24 23 21 20 19 18 18 18 18 18 18 19 19 19 20 20 20 20 19 19 19 19 19 19 19 19 19 19 18 17 17 17 17 16 16 15 14 14 14 13 13 13 13 12 13 14 14 16 15 15 15 14 14 14 14 14
5 5 3 1 1 2 1 3 2 1 4 1 4 4 3 3 4 7 7 3 4 4 4 5 5 3 4 6 4 3 2 3 3 2 2 9 13 13 15 20 24 23 22 21 19 19 19 18 18 18 18 18 18 18 19 19 20 20 19 19 19 19 18 18 18 18 17 17 17 17 17 16 16 15 15 14 14 13 14 14 13 12 13 12 12 13 14 15 16 15 15 15 15 15 14 14 14
5 5 2 2 1 3 3 3 2 4 3 3 2 3 3 2 5 5 5 5 5 2 0 3 4 2 3 6 2 2 2 1 3 2 3 5 10 15 18 21 24 22 21 20 19 18 18 18 18 18 18 18 18 18 18 19 19 19 19 18 18 18 18 17 17 17 17 16 16 16 16 16 15 14 13 13 12 12 12 13 13 12 13 13 11 12 13 14 15 15 15 15 15 15 15 15 15
5 3 1 2 2 1 3 2 2 4 3 4 2 2 3 2 3 4 1 1 2 2 2 2 3 1 3 4 2 2 2 2 2 3 4 5 15 20 20 24 24 22 21 20 18 18 17 17 18 18 18 18 17 17 17 18 19 19 18 17 17 16 17 17 16 16 16 16 15 15 15 14 14 13 12 12 11 11 12 12 13 12 13 14 12 12 13 14 15 15 16 15 14 14 16 16 15
4 1 2 3 2 1 2 1 2 2 5 4 3 3 4 2 1 3 3 4 4 4 4 2 3 3 3 2 1 3 1 3 3 4 6 10 19 19 22 26 24 22 20 19 18 17 17 17 17 17 18 18 17 16 17 17 18 19 18 17 16 16 16 16 15 15 15 15 15 15 14 13 13 12 11 12 11 11 12 12 12 12 13 14 14 13 13 14 15 16 16 14 13 14 15 15 16
3 0 2 3 1 1 3 3 4 3 4 4 3 3 4 4 2 2 5 4 4 5 5 2 3 6 3 1 2 4 3 3 4 7 10 15 19 19 23 25 23 21 19 18 17 16 16 17 17 18 18 18 17 17 16 16 17 18 18 18 16 16 15 15 14 14 14 14 14 13 13 13 12 11 11 11 12 12 12 12 12 12 13 14 15 13 13 14 15 16 16 15 14 14 14 16 17
2 1 1 4 1 2 3 1 3 4 3 3 3 3 4 5 2 0 2 2 2 3 3 2 4 5 1 2 2 4 6 4 5 10 15 18 19 18 22 23 21 20 18 18 16 16 16 17 17 17 18 18 17 17 16 16 16 17 17 17 17 16 15 14 14 13 13 13 12 12 12 12 11 11 10 11 12 12 12 12 12 12 12 14 15 14 13 15 16 16 15 14 15 15 15 17 17
3 2 0 3 2 1 1 2 3 3 4 4 4 5 6 6 3 2 2 1 1 1 1 1 6 3 2 4 2 4 5 6 9 15 18 20 19 19 21 21 21 19 19 18 16 16 16 17 17 17 17 17 17 17 16 15 15 15 16 16 16 16 15 14 13 13 13 12 12 11 11 11 11 10 10 11 11 12 13 12 12 12 12 12 14 15 14 15 15 16 16 14 14 15 15 15 14
3 2 2 2 2 1 4 2 2 2 5 5 5 7 8 6 4 4 4 3 2 5 2 2 6 3 4 4 1 3 3 9 15 16 17 20 20 20 21 20 20 19 19 17 16 15 16 17 16 17 17 16 16 16 16 15 14 14 15 15 15 15 14 13 13 13 12 12 11 11 10 10 10 10 10 11 11 12 12 12 12 11 11 11 11 14 15 15 14 14 15 14 14 13 13 13 12
2 3 3 3 2 2 4 3 3 3 5 5 6 8 8 6 3 4 4 3 2 6 3 3 4 3 5 3 1 1 6 12 15 15 16 19 19 21 21 20 19 19 18 17 16 15 16 16 16 16 16 16 15 15 15 15 14 14 14 14 15 14 14 13 12 12 12 12 11 11 10 10 10 11 10 10 11 11 11 11 11 11 10 10 10 11 14 15 13 12 12 13 13 13 12 12 11
2 2 4 3 2 3 3 2 4 5 6 3 5 7 5 5 4 5 7 5 4 7 5 2 4 4 4 1 1 3 10 12 13 14 15 18 19 20 20 20 19 18 17 17 16 15 16 15 15 15 16 16 15 14 14 14 13 13 14 14 14 14 13 13 12 11 11 11 11 11 10 10 10 11 11 11 11 11 10 10 10 10 10 11 10 10 11 12 12 11 12 12 12 12 11 11 10
3 2 4 2 3 3 2 1 4 4 5 3 5 6 1 5 6 8 9 8 8 9 6 6 7 4 3 1 0 5 9 11 13 15 16 17 18 18 18 18 18 17 16 16 16 16 15 15 15 16 16 15 14 14 13 13 13 12 13 13 13 14 13 13 12 11 11 11 10 10 10 10 10 10 11 11 11 10 9 9 9 10 10 11 10 10 9 10 11 11 12 12 12 12 11 10 10
3 3 5 2 1 2 2 1 2 1 4 5 4 5 2 2 6 7 7 8 9 7 4 6 9 6 2 2 2 4 8 11 14 15 16 17 17 18 17 17 17 16 15 15 16 16 15 15 15 15 15 15 14 13 13 13 12 12 12 12 13 13 13 12 11 11 10 10 10 10 10 10 10 11 11 11 11 10 9 9 9 9 10 11 9 9 9 9 11 11 11 12 12 12 11 10 10
2 2 4 2 1 1 2 2 1 2 4 5 3 5 4 3 3 6 9 9 7 4 5 7 6 3 4 6 4 6 11 14 15 16 17 17 17 17 16 16 15 15 14 14 16 16 15 15 15 15 15 15 14 13 12 12 11 11 12 12 12 12 12 11 11 11 10 10 9 10 10 10 11 11 12 11 11 10 10 10 9 9 10 11 9 9 9 8 11 11 10 12 12 11 11 10 10
2 3 4 2 0 1 2 3 2 2 5 6 3 5 3 6 1 5 5 6 7 2 5 5 2 0 5 6 5 12 16 17 16 17 17 16 15 15 15 15 14 14 14 14 16 15 15 16 15 15 15 15 14 13 12 12 11 11 11 11 11 12 11 10 11 11 10 10 9 10 10 10 11 11 11 11 10 10 10 10 9 9 11 12 10 8 9 8 10 11 10 11 12 11 11 10 10
3 4 4 1 1 2 3 3 3 2 6 6 5 6 1 4 4 2 2 7 10 6 5 2 1 2 4 4 10 19 19 18 18 18 17 15 15 14 14 15 15 16 14 14 15 14 15 15 14 14 14 14 14 13 12 11 11 10 10 10 10 11 11 10 10 11 10 9 10 11 10 9 11 11 11 11 11 10 10 10 9 9 10 12 11 8 8 8 9 10 10 10 11 12 11 10 10
3 3 3 1 2 3 5 6 5 3 5 6 7 5 3 2 3 2 6 8 6 7 5 3 5 5 6 10 19 23 20 19 18 17 15 12 12 11 12 14 16 17 16 16 15 14 14 14 13 13 13 12 12 12 12 11 11 11 10 10 10 10 10 10 11 11 10 9 10 12 11 9 10 11 10 11 10 10 9 9 9 9 10 12 11 9 8 8 8 10 10 9 10 12 11 10 10
3 3 2 3 5 4 6 6 4 3 5 8 8 5 3 4 1 2 4 4 5 8 4 4 7 6 9 13 20 22 19 19 18 16 13 10 10 9 9 11 13 15 16 16 15 14 13 13 12 12 12 11 11 10 11 11 11 11 11 11 10 10 11 11 11 11 10 10 11 11 11 9 9 9 10 10 9 9 9 9 9 9 10 11 11 9 8 8 7 9 10 9 9 13 12 10 9
2 3 1 5 6 5 6 6 7 5 5 8 8 5 1 3 1 2 5 5 3 6 4 4 6 5 8 9 14 20 19 18 18 17 14 12 11 11 11 11 12 12 14 15 15 13 12 12 12 11 10 10 10 10 10 11 11 11 11 11 11 11 11 12 11 11 10 10 11 11 11 9 9 9 9 9 9 9 9 9 9 9 10 10 11 10 9 8 7 8 10 10 10 12 12 10 8
1 3 4 6 4 4 7 7 8 7 4 5 7 4 1 2 2 4 8 7 1 5 7 7 11 12 12 10 11 16 16 15 16 16 15 14 13 13 13 12 13 13 14 14 13 13 12 11 11 10 10 9 10 10 10 10 11 11 11 11 11 11 12 13 12 11 10 10 11 11 10 9 9 9 9 9 10 10 10 10 10 10 10 11 11 11 10 9 8 10 11 12 12 12 11 9 7
1 3 6 6 4 3 8 5 6 6 3 4 5 2 3 2 4 6 9 8 3 5 6 6 12 17 16 14 12 12 13 12 12 13 14 15 15 15 14 13 13 13 13 13 13 12 12 11 10 9 9 9 9 9 10 10 10 11 11 11 10 11 12 13 13 12 11 11 12 11 10 10 11 10 10 10 11 11 12 12 11 12 11 12 13 12 11 10 10 11 12 14 14 12 10 8 7
2 4 3 5 5 5 6 3 5 4 2 5 3 2 1 5 5 6 5 5 5 4 2 6 9 14 18 16 14 13 13 11 11 13 16 17 16 16 15 14 14 14 13 12 12 12 12 11 9 9 9 8 8 9 10 10 10 11 11 10 10 11 12 12 12 12 11 11 12 12 12 12 12 12 12 12 11 12 13 13 13 13 12 12 13 12 11 10 10 11 12 14 14 13 10 7 6
3 4 5 5 5 7 7 5 5 4 5 8 2 3 2 7 6 5 5 5 6 3 6 9 6 9 13 13 12 13 12 11 11 14 17 18 18 17 15 15 15 15 14 13 13 13 12 12 10 9 8 8 7 7 8 9 10 11 11 12 12 12 12 12 12 11 11 12 12 13 13 13 13 13 13 12 12 12 12 13 14 14 13 13 12 11 10 10 10 11 12 14 14 13 10 8 7
3 5 5 4 4 7 8 7 7 5 7 8 3 4 5 5 4 6 5 5 3 3 8 10 8 8 9 10 11 10 9 9 11 12 14 16 17 16 14 15 16 16 16 16 14 13 13 12 11 9 8 8 7 6 7 8 9 9 10 12 12 12 13 12 11 11 11 12 12 12 12 12 13 13 14 13 13 13 13 14 15 14 14 13 12 11 10 9 9 10 11 13 14 13 10 9 7
5 5 4 4 6 7 7 7 7 5 5 4 3 4 4 3 1 5 3 2 3 7 10 10 10 9 8 8 9 9 9 9 10 12 13 15 17 16 15 16 18 19 18 17 15 14 14 12 11 10 9 8 7 6 6 7 7 7 8 9 9 10 12 11 11 12 13 13 12 12 11 11 12 12 13 13 14 14 14 14 12 12 15 15 12 12 10 9 9 9 10 11 12 12 11 9 8
5 4 5 7 8 7 4 6 5 3 4 5 6 3 2 1 1 3 3 2 7 9 10 9 10 10 8 7 6 7 8 9 12 14 13 14 17 18 19 19 20 20 19 18 16 15 14 13 12 11 10 9 8 7 6 6 6 7 8 8 7 9 11 12 13 13 13 13 12 11 9 9 10 11 13 14 14 14 12 11 12 12 14 13 12 12 10 8 8 9 10 10 10 11 11 10 8
3 2 6 8 7 5 2 4 5 1 2 5 8 2 1 2 1 4 4 4 8 11 11 9 10 9 7 7 6 6 6 10 15 15 14 15 19 22 22 22 22 22 20 19 18 16 15 13 12 11 10 10 9 8 7 7 6 6 7 7 6 8 10 12 14 14 13 13 12 11 9 9 10 11 13 14 13 14 12 12 14 12 9 10 13 13 12 11 11 10 11 11 11 11 11 11 9
1 2 3 9 7 5 4 3 4 1 0 2 6 2 4 2 3 5 3 5 7 9 10 9 10 8 6 7 6 5 6 10 13 14 18 20 22 24 24 24 25 24 21 20 19 18 16 14 13 11 11 10 10 9 8 7 6 6 5 5 5 6 6 6 9 12 14 15 13 12 11 11 12 12 11 10 12 14 12 11 12 12 10 9 12 15 16 15 13 12 12 11 11 12 12 11 10
3 3 1 6 7 6 6 4 4 2 1 2 3 2 5 6 7 6 3 8 9 9 8 7 7 6 6 6 5 6 6 9 12 15 20 21 22 24 26 26 25 24 22 21 19 18 16 15 13 12 12 11 10 10 9 8 7 6 5 5 5 4 3 2 3 6 9 11 12 11 10 10 11 10 6 5 10 12 9 9 10 12 12 9 9 15 17 16 13 12 11 10 10 11 11 11 10
3 2 2 3 2 3 7 4 4 3 0 5 6 3 5 6 7 5 6 8 11 10 7 7 7 6 6 6 6 6 6 8 13 17 20 22 24 24 26 27 25 24 23 21 19 17 15 14 13 13 13 13 12 11 10 9 8 7 6 6 6 5 4 4 3 3 3 3 4 6 6 7 7 6 3 3 7 8 6 8 11 12 12 10 8 12 16 16 15 14 13 12 11 10 10 10 10
3 2 2 4 2 4 8 4 3 2 3 5 7 2 5 4 6 6 6 7 11 10 9 8 7 8 7 6 6 6 6 8 13 16 18 21 24 25 27 28 27 25 24 22 20 17 15 14 13 13 13 13 12 12 11 11 9 8 7 7 7 5 4 4 4 3 2 2 2 1 1 2 2 3 4 4 3 3 4 6 8 9 10 10 9 9 12 14 17 19 17 16 14 11 11 10 10
4 3 0 3 3 3 5 4 5 3 3 5 4 2 5 3 5 5 4 6 9 9 9 8 8 8 7 7 6 6 6 7 10 14 18 21 24 26 29 29 28 27 25 23 22 19 17 15 13 12 12 13 13 13 12 10 9 8 7 8 7 6 4 4 3 4 4 4 3 3 3 2 2 1 3 3 3 3 4 5 5 6 8 11 10 8 11 13 15 18 18 18 17 15 13 12 11
4 3 3 2 1 1 3 4 5 6 2 3 2 2 4 4 5 5 3 3 7 8 9 9 8 7 6 5 5 5 6 7 9 13 18 22 24 26 28 29 28 27 25 23 22 20 19 17 15 13 13 14 13 13 12 10 9 8 8 8 7 6 4 3 3 5 7 5 5 5 5 4 4 3 3 4 4 4 5 5 4 4 6 8 8 10 12 12 10 12 16 18 16 15 15 14 13
2 1 2 2 1 1 3 3 2 6 4 2 3 3 4 6 5 4 4 2 6 8 7 7 6 6 5 4 4 4 6 8 8 10 17 22 23 24 25 26 26 26 24 23 22 21 20 18 16 15 14 15 15 14 12 11 10 9 9 9 7 6 4 3 4 6 8 6 5 5 4 3 3 3 4 4 4 5 5 5 5 4 3 3 7 10 12 10 8 9 12 14 13 13 14 14 13
5 3 4 3 1 2 5 5 4 3 3 1 1 4 5 6 2 5 5 3 4 4 2 4 4 5 5 5 5 6 7 8 5 7 15 21 22 22 23 23 24 24 24 23 22 21 20 20 19 18 16 16 16 15 14 13 11 11 11 9 8 7 5 5 5 6 7 6 4 3 2 2 2 3 3 3 3 3 5 6 5 6 6 2 3 5 6 6 6 4 5 9 9 10 12 12 10
5 4 4 3 3 2 5 4 5 2 1 1 1 3 5 5 5 5 5 3 4 5 4 5 5 5 5 6 7 7 7 6 4 7 16 20 19 20 21 21 22 23 23 23 23 22 21 21 21 20 18 17 17 16 15 14 13 13 11 10 9 8 6 6 6 7 6 5 3 1 1 2 3 3 3 2 1 1 3 6 7 6 7 7 7 6 5 2 3 4 4 4 4 4 5 6 7
4 5 4 1 2 3 5 3 4 4 1 3 2 3 5 5 5 5 2 5 7 9 8 7 7 6 5 7 8 7 5 4 4 7 13 18 17 18 20 21 23 24 24 24 23 22 21 21 21 21 20 18 17 16 17 16 14 12 11 10 10 9 7 6 6 6 5 4 3 1 1 2 2 3 3 3 3 3 3 5 8 8 9 10 11 11 13 11 6 5 4 4 6 5 2 2 3
4 3 2 1 2 3 5 4 5 5 1 4 4 6 6 6 5 6 4 6 8 8 10 10 9 9 7 8 8 7 7 6 6 7 11 17 17 18 20 21 24 25 25 25 23 23 22 22 22 22 21 20 18 18 18 17 15 12 10 10 10 8 7 6 6 6 6 5 3 2 2 3 3 4 5 5 7 7 7 8 9 11 12 12 12 13 14 14 13 11 9 8 10 9 6 3 2
3 3 3 2 3 1 3 4 6 4 2 1 3 4 6 6 5 3 4 5 6 4 7 7 7 10 11 10 10 10 11 10 9 8 9 13 16 19 21 22 24 23 24 26 25 24 23 24 24 24 22 21 20 20 18 17 16 13 11 10 9 7 7 7 7 8 7 6 4 3 2 2 2 3 4 5 7 9 9 10 10 11 12 12 13 14 15 15 15 15 13 11 11 12 10 7 6
2 3 4 3 2 3 4 4 5 4 4 3 4 5 5 5 5 3 1 2 3 4 2 5 7 8 6 5 7 10 12 12 12 11 10 12 16 20 22 23 24 24 26 27 27 25 24 25 25 24 23 23 22 21 19 18 16 15 13 12 10 8 8 8 8 8 7 6 5 3 2 2 2 3 4 4 5 7 8 8 9 10 11 10 11 12 14 14 14 14 13 13 12 12 12 11 9
4 3 7 7 5 5 3 2 5 5 4 4 4 2 5 4 4 5 3 4 4 3 2 7 8 6 4 5 8 9 11 11 11 12 11 12 16 18 21 23 25 26 28 28 28 26 24 24 25 25 25 25 24 22 20 18 16 16 17 17 14 12 11 10 8 8 8 7 6 4 3 4 4 4 4 4 5 5 5 6 6 7 8 9 9 10 11 11 12 12 11 11 12 11 11 12 11
2 4 6 6 6 6 3 2 3 2 2 3 3 3 4 6 4 5 4 5 6 5 4 6 6 5 6 7 8 8 10 10 10 11 11 11 14 16 20 26 29 29 28 28 28 26 26 25 26 27 27 27 26 23 21 19 17 17 19 19 16 15 14 11 9 8 8 7 6 5 5 6 6 6 5 5 5 5 5 5 5 6 7 8 8 9 11 11 11 11 10 9 9 8 8 11 12
2 4 6 8 6 5 5 5 4 2 3 3 4 3 2 4 5 5 3 5 7 7 6 6 4 5 6 7 9 9 11 12 12 12 12 11 14 18 23 28 31 29 28 29 30 29 28 27 27 29 29 29 27 25 23 21 19 19 20 19 16 14 12 10 10 9 8 7 6 6 5 5 6 6 6 6 6 6 6 7 7 8 9 10 10 11 12 12 11 11 10 9 8 8 8 9 9
5 4 7 6 5 5 5 5 3 1 1 3 5 1 1 4 5 5 4 3 6 7 7 7 4 3 6 8 10 11 13 14 13 14 14 13 17 24 27 27 26 27 28 30 32 31 29 29 29 30 31 30 28 26 24 22 20 20 21 20 16 14 12 10 11 10 9 7 7 7 7 5 5 6 6 6 6 7 8 9 9 10 11 11 11 11 12 11 12 11 11 11 9 9 9 8 8
4 6 7 5 5 5 4 5 3 3 3 4 6 1 2 4 5 5 3 1 5 6 6 7 5 4 5 7 8 9 11 12 13 15 14 15 20 23 22 20 22 24 27 29 30 30 30 30 31 31 32 31 29 27 26 24 22 21 22 21 18 15 13 12 12 11 10 8 8 8 8 7 6 6 6 6 6 7 7 8 8 9 10 10 10 11 11 12 12 12 12 11 11 10 10 9 8
3 5 6 6 6 5 4 3 4 4 1 6 6 2 2 3 5 4 3 2 3 5 6 6 6 8 8 8 9 9 9 9 11 12 10 12 15 17 17 18 21 23 25 27 29 30 31 32 33 33 33 32 30 28 27 25 24 23 23 22 19 16 15 15 14 13 12 11 10 10 10 9 8 7 6 6 6 6 6 5 6 7 8 8 9 10 11 12 12 12 12 12 12 12 12 11 10
4 4 5 3 3 4 4 4 3 3 3 6 5 1 4 2 4 4 4 4 4 5 6 7 8 9 9 9 9 8 7 7 8 7 7 8 9 13 18 20 21 23 25 29 31 32 32 33 34 34 33 33 31 30 28 26 25 25 24 24 22 18 17 18 17 16 15 13 12 11 11 11 10 9 7 6 5 5 4 3 3 4 5 7 8 10 11 11 11 11 12 13 13 13 12 12 12
5 4 5 3 2 3 2 3 1 2 5 4 3 1 2 4 6 4 5 6 6 5 4 5 6 7 9 9 8 7 5 4 5 6 6 7 8 10 15 19 22 26 29 31 32 33 34 34 34 35 35 35 33 31 30 28 27 27 26 26 24 21 19 19 19 17 16 15 13 13 12 12 11 10 9 7 6 5 4 2 1 1 3 5 7 8 8 9 10 11 12 12 12 12 11 11 11
3 4 4 2 1 2 1 3 1 3 4 2 3 2 1 4 3 3 4 6 6 5 4 4 5 5 7 8 6 6 5 3 2 5 6 7 7 8 12 16 20 24 28 31 33 34 34 33 33 35 35 35 34 32 31 30 29 29 28 27 26 23 21 21 20 19 17 16 15 14 13 12 11 10 10 9 7 5 4 3 2 1 1 3 5 6 6 7 8 10 12 12 12 12 11 11 10
2 4 5 4 4 3 3 3 2 3 3 2 2 1 2 2 2 4 4 5 5 5 6 5 4 6 6 6 8 8 7 5 2 2 3 4 6 10 13 15 17 18 21 25 29 32 33 33 34 35 35 35 34 33 32 31 31 30 29 29 27 25 23 22 21 20 19 17 16 15 14 13 11 9 9 10 9 7 6 5 4 2 0 2 4 4 4 5 6 8 10 10 11 11 10 10 10
1 2 5 2 4 4 2 3 4 3 1 1 1 2 3 3 2 4 3 5 5 5 5 3 4 6 5 8 10 9 8 6 4 1 2 3 6 10 13 16 17 16 17 20 23 26 29 31 33 35 35 35 35 35 35 33 32 32 31 30 29 27 25 24 23 22 21 19 18 17 15 14 12 10 10 10 10 9 8 7 6 4 1 1 2 3 3 3 5 7 8 9 9 9 9 10 10
1 2 2 3 4 6 4 1 1 3 1 3 1 2 3 1 1 4 5 5 5 5 4 3 4 6 8 9 8 8 8 7 6 3 1 2 5 8 11 14 16 15 17 19 21 22 25 26 28 30 31 32 34 36 36 35 33 33 33 32 30 29 27 26 25 24 22 21 20 19 17 15 14 13 12 12 11 10 10 9 7 5 3 2 2 1 1 2 4 5 6 8 8 8 8 8 9
4 2 4 2 2 4 4 1 3 4 2 4 1 2 2 0 1 1 1 2 3 5 5 4 6 7 8 7 6 7 8 8 8 7 4 2 2 6 10 11 12 13 14 16 19 22 24 25 26 28 29 31 33 35 35 35 34 34 34 33 32 31 30 29 27 25 24 22 22 21 20 19 17 15 14 14 13 12 12 11 9 7 5 3 2 1 1 1 3 4 5 6 7 7 7 7 8
4 3 3 2 2 1 1 2 1 0 2 3 3 3 3 3 4 4 5 5 1 4 5 5 7 7 7 6 6 7 7 8 8 8 7 6 4 0 6 10 11 12 12 14 16 20 23 24 25 26 27 28 29 29 30 32 34 35 35 34 33 32 31 30 29 27 26 25 24 23 22 21 19 18 17 16 15 15 14 12 10 8 6 4 2 2 2 2 2 3 4 5 5 5 5 6 7
3 3 3 2 3 3 1 2 3 2 2 2 3 4 2 5 5 5 7 6 2 1 4 6 6 6 5 5 6 6 6 7 6 7 7 7 9 9 3 6 10 11 13 13 15 19 22 21 21 23 24 25 25 26 28 30 32 34 34 34 34 33 32 32 30 29 28 28 27 25 24 23 21 20 19 18 17 16 15 13 11 9 7 5 3 3 2 1 1 2 3 4 4 4 4 4 5
2 3 2 1 2 2 1 1 2 3 3 2 1 2 4 5 3 5 7 6 5 4 2 4 4 5 5 5 5 5 5 6 6 6 6 6 9 15 13 5 3 7 10 12 14 17 20 20 21 22 23 24 26 27 29 30 31 32 33 34 35 35 34 33 32 31 31 30 29 28 27 25 23 22 21 20 19 17 16 14 12 10 8 6 4 3 2 1 1 2 4 5 5 6 6 6 7
2 2 2 2 3 2 1 2 2 1 2 3 4 3 6 5 3 4 6 5 5 5 3 3 2 3 5 6 5 5 5 6 6 6 6 6 8 13 17 15 11 6 1 5 10 14 17 19 21 23 25 27 27 28 31 31 31 33 35 36 36 36 36 35 34 33 33 32 31 30 29 27 25 24 22 21 20 18 16 15 13 11 8 6 5 3 2 2 3 4 6 7 7 7 7 7 8
Wind_Direction
339 339 335 323 309 296 295 77 62 318 86 33 283 229 264 243 247 293 295 286 117 316 312 51 75 97 107 129 153 149 116 148 161 157 197 273 137 145 147 153 160 157 155 153 152 156 156 156 153 149 150 147 146 144 142 140 137 135 133 132 130 127 123 122 126 129 130 131 131 130 130 130 129 128 128 128 127 128 129 128 126 125 122 117 118 121 125 127 125 127 128 131 134 134 134 133 133
338 338 333 312 317 275 219 82 95 324 52 348 286 184 257 304 300 241 238 263 157 183 133 97 87 74 75 110 118 111 60 27 129 177 338 119 131 139 143 152 159 156 153 151 153 156 156 157 154 152 152 149 147 146 145 142 139 137 136 135 133 130 126 124 126 130 133 134 135 133 133 132 132 131 133 136 135 135 134 133 129 126 123 118 117 120 125 126 125 126 128 131 133 134 134 134 134
340 342 345 231 303 55 90 41 109 74 81 211 279 229 279 336 274 241 224 206 157 172 139 101 87 66 60 78 59 97 75 25 98 88 95 129 131 141 148 153 159 156 152 150 152 155 156 158 156 154 154 152 149 149 148 144 141 140 139 137 136 133 130 128 127 130 133 135 136 135 135 135 135 135 138 141 140 140 139 136 128 123 124 122 120 120 123 124 124 126 128 131 132 134 135 135 134
349 347 349 166 111 35 64 45 147 123 121 206 270 275 305 305 289 280 219 171 167 230 346 86 68 350 79 98 84 93 99 82 76 74 131 154 150 154 156 156 159 156 152 149 151 154 155 157 158 156 154 154 150 150 150 146 144 142 142 140 137 135 133 132 129 131 133 135 136 136 137 138 139 139 141 141 143 145 142 136 130 127 126 125 121 119 121 122 124 126 128 130 132 135 136 135 133
352 348 3 110 106 45 100 80 125 117 179 192 122 295 303 283 340 1 66 142 261 331 24 90 89 314 73 96 137 119 129 123 67 99 130 164 157 155 158 158 159 156 152 149 150 153 155 155 158 158 155 154 152 150 150 148 146 145 145 143 140 138 137 136 134 133 133 135 137 138 139 138 139 141 142 142 146 149 143 138 134 127 121 126 127 122 121 121 124 127 130 131 130 134 139 137 134
349 26 51 63 102 150 119 144 171 171 224 175 131 254 302 319 55 16 348 330 326 31 41 51 128 138 85 42 124 109 138 136 115 130 140 157 158 157 157 158 159 156 151 148 148 152 153 155 158 161 156 154 154 151 151 151 150 149 148 147 144 141 140 140 137 135 136 137 137 141 142 141 140 140 143 144 146 149 148 142 136 128 122 129 132 127 126 125 124 129 134 134 133 136 142 142 138
351 158 28 59 49 30 116 185 191 217 244 173 161 232 301 315 147 43 349 344 352 14 26 48 121 116 90 332 106 26 28 127 140 150 156 156 158 158 158 159 157 151 148 147 146 150 152 154 158 162 159 156 156 154 154 154 153 152 152 151 148 146 143 142 141 137 138 140 140 142 144 147 145 142 145 145 146 149 148 143 137 133 130 131 132 132 133 132 130 135 142 141 142 146 148 147 143
25 136 24 95 52 8 107 218 221 209 250 212 215 241 276 291 244 181 4 6 352 351 16 9 7 81 71 355 90 351 29 104 142 149 154 155 160 159 161 162 153 146 146 147 146 150 152 153 158 163 162 160 159 157 157 157 155 155 155 155 153 150 146 145 145 142 141 142 143 144 146 149 150 148 149 149 149 149 147 146 142 139 135 132 133 135 136 140 140 141 146 147 149 151 153 152 150
41 51 91 102 131 13 22 286 266 228 261 261 237 238 254 266 258 213 163 331 346 80 125 322 359 72 149 26 60 322 31 105 133 141 151 157 163 160 162 164 156 148 147 149 149 152 151 153 158 163 164 163 162 159 161 159 157 157 157 159 157 153 150 149 148 146 144 145 147 149 150 152 154 153 152 152 152 152 151 151 147 144 141 136 136 138 139 142 146 146 148 151 153 154 158 162 164
40 29 134 88 115 233 306 281 268 255 252 260 247 229 236 245 222 203 179 212 178 134 187 25 34 88 125 64 25 318 81 133 133 136 149 155 160 160 161 164 163 154 149 151 152 153 151 153 160 163 164 165 165 163 164 161 158 157 158 162 161 158 155 153 151 150 147 147 152 152 155 157 160 159 157 157 156 158 157 154 150 146 145 142 140 143 144 144 149 153 151 154 161 164 167 172 179
41 347 97 81 81 208 254 253 277 269 263 285 283 246 225 225 205 222 201 202 180 150 194 35 73 115 88 69 305 284 143 144 138 137 148 153 158 162 161 163 166 160 153 153 153 154 153 155 160 163 163 165 168 166 165 161 157 156 158 162 163 163 159 157 156 155 151 150 156 158 161 162 166 166 162 164 164 165 162 158 155 150 149 150 147 147 150 150 152 159 160 157 163 174 179 183 189
85 335 63 100 153 202 210 228 278 281 290 292 277 266 208 179 175 216 204 198 184 158 182 132 139 135 83 68 280 163 147 146 146 143 149 153 157 163 163 163 164 163 158 156 155 154 154 155 157 162 164 164 168 167 166 162 159 156 158 163 165 167 165 163 160 160 157 154 160 162 163 165 170 171 169 173 173 170 165 163 160 154 153 154 153 154 158 160 158 164 170 165 163 172 182 187 191
121 147 88 136 191 173 166 187 273 306 311 260 236 267 178 155 191 209 195 184 170 161 192 170 148 116 88 214 200 162 157 156 153 149 155 155 157 160 161 160 160 162 159 157 157 155 155 157 158 163 164 163 165 165 166 165 163 158 159 163 166 171 169 167 166 165 163 159 163 166 165 168 173 176 178 180 179 175 171 170 167 161 159 156 157 161 166 170 167 166 174 174 167 168 175 181 185
142 149 117 170 219 134 174 213 280 356 286 259 243 281 301 194 214 202 165 162 176 174 172 151 142 113 93 201 171 184 170 163 157 155 161 156 157 157 156 158 159 160 157 157 159 156 156 158 160 162 163 163 163 164 166 168 166 162 163 164 166 172 172 171 173 171 169 166 170 171 168 170 176 181 187 188 184 182 180 183 180 174 170 164 163 167 171 177 175 171 175 178 173 170 171 174 180
155 125 95 122 3 355 220 220 211 149 255 255 252 299 307 263 214 170 165 161 187 195 112 120 140 116 180 184 183 192 171 164 161 159 159 154 157 155 155 158 160 163 158 157 159 159 158 160 161 163 165 162 162 163 164 169 167 165 167 166 167 170 173 175 177 177 174 174 178 178 175 174 178 185 191 193 186 184 185 187 187 186 182 174 171 171 174 179 179 177 178 181 179 174 170 169 178
125 105 72 85 260 290 231 216 205 180 259 243 261 326 331 299 334 152 203 150 142 143 89 126 180 91 182 191 176 168 165 162 160 159 154 149 153 153 154 156 159 165 164 163 163 162 162 164 164 164 166 163 164 163 161 166 166 167 170 169 171 173 175 177 180 183 179 180 183 184 186 180 180 188 194 195 186 183 186 188 189 191 191 184 179 176 179 182 182 182 182 183 184 179 172 170 177
75 82 72 54 188 210 221 211 192 192 268 267 323 349 71 325 357 90 8 84 120 116 68 86 324 4 164 167 146 150 155 157 154 150 144 140 144 148 152 154 156 161 165 168 169 167 164 164 163 161 164 165 166 165 161 162 163 167 171 172 174 176 179 181 183 187 186 188 191 189 191 188 187 191 194 194 185 184 190 192 195 195 197 195 189 184 187 191 189 189 188 185 185 185 181 175 176
66 86 105 176 195 196 199 197 203 204 280 287 323 331 134 75 8 31 48 71 98 91 57 45 31 25 91 114 130 140 147 149 147 143 137 135 138 142 149 153 155 158 163 168 172 168 162 161 160 160 161 166 169 168 165 163 165 168 172 175 176 179 180 184 186 189 193 194 197 193 189 192 193 191 195 197 189 189 196 198 202 201 202 202 197 194 196 200 199 199 200 194 184 185 189 183 175
108 118 120 216 206 214 208 203 229 222 277 295 313 315 136 134 142 46 88 110 110 99 55 47 65 55 88 110 126 135 142 141 144 146 142 142 142 144 145 149 154 156 160 166 170 166 163 161 162 164 164 168 172 172 171 170 172 173 176 179 179 181 182 186 187 192 198 199 202 197 191 195 196 197 203 204 197 198 204 204 207 207 209 208 202 202 204 205 207 207 210 208 193 185 189 191 181
167 126 157 244 215 234 241 226 241 236 279 300 303 308 105 146 147 64 118 117 96 130 134 109 122 137 127 126 130 134 140 142 150 154 150 151 153 155 152 153 158 158 161 166 169 167 167 167 167 171 172 177 178 175 179 180 179 180 183 183 184 185 186 189 191 198 203 205 206 201 197 199 203 210 213 210 205 205 209 208 209 210 212 212 206 207 208 207 210 210 210 214 208 193 188 194 192
162 135 190 237 200 239 257 229 247 261 260 267 293 320 119 151 87 115 139 123 48 215 203 181 162 159 149 147 142 140 146 149 156 158 154 153 157 162 160 159 162 166 169 170 173 173 174 177 177 177 181 188 189 187 188 189 187 188 189 187 188 191 193 194 195 201 203 207 209 204 203 206 213 219 221 218 211 209 212 211 209 208 209 209 208 211 210 208 211 208 209 213 213 204 194 196 200
155 218 207 220 177 241 267 230 240 255 245 269 303 311 177 141 103 146 160 153 198 240 227 200 166 158 156 154 150 148 153 155 160 163 158 156 162 164 161 160 162 167 171 174 178 180 181 184 188 187 190 197 200 203 201 198 195 198 197 192 195 200 203 201 199 202 204 206 208 207 209 216 222 224 227 223 216 216 216 214 210 207 206 205 207 212 213 213 214 210 210 212 212 211 205 201 204
194 269 253 237 204 226 265 226 224 237 304 292 280 283 193 107 128 180 193 194 254 289 139 157 166 158 152 150 152 157 161 163 166 170 163 160 165 163 160 160 160 162 165 170 175 179 183 185 193 196 198 202 205 210 208 203 203 207 207 208 212 212 212 210 206 206 208 209 208 211 215 221 226 227 229 225 223 224 222 220 216 212 209 207 209 214 218 219 219 216 216 215 212 214 215 210 205
176 263 286 264 211 220 256 249 251 252 264 267 267 330 232 145 147 178 219 260 293 314 111 122 129 134 141 145 153 159 158 162 168 171 165 163 166 162 159 159 159 163 161 163 167 170 175 178 184 188 191 195 198 208 210 204 209 215 215 219 219 216 216 215 214 213 214 216 214 216 219 223 227 229 231 231 233 231 228 227 220 217 214 211 215 217 222 226 222 219 220 220 216 216 219 215 210
186 225 267 274 217 232 260 266 268 253 245 260 283 313 254 204 156 157 220 297 349 87 105 109 112 118 137 147 153 154 153 157 159 160 160 161 163 159 158 160 162 167 163 162 164 165 167 170 174 178 180 182 186 197 204 204 214 220 218 219 214 212 217 216 217 218 218 220 219 221 223 224 226 231 234 235 236 237 237 230 219 220 219 214 218 221 225 230 226 220 222 224 221 218 217 214 218
212 211 252 270 269 267 272 273 265 230 237 228 211 283 280 261 140 158 249 332 96 105 105 114 124 133 147 152 156 157 155 156 153 152 153 155 159 159 159 163 166 168 167 165 167 169 169 169 172 177 180 182 186 192 195 199 209 213 213 221 216 214 219 219 218 218 221 222 221 223 227 230 230 235 238 239 239 240 240 234 225 225 223 217 217 223 226 232 233 225 222 223 220 217 214 214 223
201 210 260 260 274 282 258 267 270 200 230 187 170 236 255 313 42 199 272 135 131 109 110 126 135 149 157 153 156 155 155 159 157 150 146 151 160 163 161 161 163 165 168 169 172 176 176 176 178 182 186 187 190 193 193 195 205 210 210 215 216 222 228 225 219 217 222 225 223 225 232 242 243 243 243 244 249 249 249 254 255 246 231 218 215 224 229 234 240 236 229 223 218 217 218 225 235
215 241 292 291 298 291 261 285 300 284 224 170 149 138 5 5 18 238 250 160 139 123 130 143 146 158 155 150 153 153 164 164 161 154 155 165 169 168 163 160 160 161 167 170 173 179 180 180 180 183 186 185 185 187 188 191 204 214 216 213 215 235 242 234 226 223 228 229 227 228 231 241 246 250 249 248 255 257 255 261 266 266 254 229 215 214 218 223 228 233 233 226 222 225 229 236 247
294 41 314 308 347 359 341 333 316 349 255 150 140 94 340 270 252 277 250 140 129 126 140 151 154 159 150 155 159 163 173 165 166 170 172 175 174 169 164 162 162 161 164 168 173 178 182 182 183 187 187 184 181 180 182 184 193 203 210 204 203 231 242 238 234 232 234 236 236 235 232 236 242 249 253 247 250 255 252 253 263 266 266 251 218 207 212 214 216 224 231 232 231 236 242 245 253
316 28 59 317 1 5 340 346 342 13 129 35 117 231 286 262 267 273 196 137 126 127 146 156 154 158 158 166 166 173 180 170 178 184 180 177 176 172 165 165 166 165 166 169 174 178 181 183 183 186 185 185 181 178 178 176 180 182 179 170 172 196 193 176 211 223 238 247 246 243 242 250 256 256 255 248 256 261 257 255 260 255 255 260 225 210 216 213 211 220 224 231 236 240 249 252 256
328 350 51 5 35 303 317 329 345 345 197 54 78 235 264 270 275 236 179 150 142 145 160 161 160 171 173 176 174 182 193 191 191 187 184 181 178 174 168 168 169 170 171 173 178 181 183 184 183 183 181 182 179 175 173 169 168 163 155 152 155 156 144 137 134 177 239 274 251 242 249 267 286 296 325 326 274 270 269 262 260 254 251 258 245 228 227 215 209 218 220 225 234 241 250 254 258
15 27 327 351 57 301 313 333 10 344 297 33 82 237 273 259 249 210 176 162 152 154 169 169 175 182 179 183 183 187 200 205 201 193 188 185 179 176 173 171 172 174 175 176 179 182 186 190 189 183 175 174 171 168 167 164 162 157 152 149 152 153 135 125 123 160 182 85 96 169 216 253 302 332 351 358 311 295 296 276 268 265 261 261 259 252 251 231 215 217 219 221 227 239 250 254 257
355 60 112 315 36 358 323 342 358 14 311 347 81 207 277 303 268 238 195 169 157 159 173 176 180 186 189 189 187 187 192 203 210 203 193 186 183 179 176 175 176 177 178 178 179 181 187 190 189 182 171 169 167 165 166 166 163 160 160 158 159 160 139 125 129 163 159 120 109 100 91 85 64 11 333 333 339 343 308 294 296 290 280 272 259 252 262 253 232 225 222 224 231 240 252 261 262
322 26 67 288 342 29 332 333 344 23 13 305 8 226 252 330 307 265 252 178 160 167 180 185 185 192 197 194 195 197 195 202 210 205 193 188 187 184 180 180 179 179 179 180 181 183 185 183 182 178 169 167 167 167 166 165 164 163 164 164 162 156 144 130 125 150 153 137 115 104 93 77 66 46 13 349 351 353 326 334 353 322 288 272 246 233 242 245 242 238 228 226 233 241 250 264 268
229 257 75 328 316 282 295 281 316 20 16 287 342 291 271 326 309 250 279 252 180 188 183 182 189 189 190 195 210 215 214 215 214 204 193 191 191 187 185 183 182 181 181 181 181 182 180 176 177 175 170 168 167 167 165 162 159 159 157 157 156 148 143 131 115 134 145 142 124 111 98 77 56 27 11 355 358 355 348 10 35 27 353 242 217 225 234 235 236 241 236 231 237 247 249 257 266
170 184 137 140 120 277 266 260 276 351 25 3 317 256 277 315 274 202 255 254 190 212 182 171 187 182 188 197 209 215 220 222 221 205 197 197 197 191 188 188 185 183 183 183 182 182 179 175 174 173 171 171 169 168 166 163 158 154 152 152 151 141 138 135 126 132 137 137 130 116 87 47 12 348 339 332 347 348 1 32 52 49 50 98 184 219 235 233 219 206 226 232 238 250 249 252 264
129 121 119 154 166 279 276 266 288 302 87 323 216 235 267 265 227 213 237 222 204 227 207 199 199 191 200 203 212 217 220 226 216 201 201 204 203 196 193 191 187 184 185 186 185 183 181 178 176 172 172 176 177 175 171 167 162 157 155 156 151 143 146 151 144 141 140 141 136 117 32 360 340 333 330 323 359 357 21 45 54 63 73 80 83 78 82 120 172 161 178 198 186 211 240 252 257
98 129 131 181 190 237 265 253 307 340 61 273 331 353 296 259 243 254 222 175 210 219 203 205 205 201 211 211 218 221 220 224 198 194 202 206 208 202 198 195 190 188 187 188 188 185 183 182 180 174 175 180 181 180 175 170 167 166 165 162 157 153 155 162 161 154 146 145 142 121 37 20 13 30 43 61 77 72 69 67 66 71 78 80 80 76 78 86 99 134 141 111 115 137 154 209 240
82 127 137 310 253 273 290 290 328 355 21 282 347 9 299 276 268 254 210 191 221 221 203 202 196 194 206 209 212 211 214 221 203 196 200 204 208 204 202 200 196 194 191 189 190 187 185 186 183 178 178 179 177 177 175 171 168 167 166 162 163 163 159 159 157 147 139 141 138 112 75 57 53 69 76 78 82 81 79 82 81 78 78 77 78 76 77 82 84 90 96 97 102 106 112 134 170
88 122 139 264 274 325 295 299 325 347 32 303 18 11 299 302 321 268 206 219 257 264 223 221 210 203 206 205 205 204 206 212 209 204 196 196 202 204 205 203 200 197 194 191 189 188 189 190 186 182 180 179 175 173 174 174 171 168 166 163 165 163 154 149 141 132 129 131 132 118 92 77 70 82 94 89 83 80 78 81 84 81 79 77 77 77 75 74 74 75 77 82 88 92 95 91 82
299 162 160 212 238 194 215 280 327 348 12 32 50 7 314 330 341 302 243 249 298 337 279 249 249 232 223 214 210 210 210 211 208 204 193 189 197 201 202 203 202 200 197 194 191 190 193 193 188 186 184 180 178 175 176 178 176 174 170 166 166 160 155 155 151 145 142 139 136 128 108 120 134 116 110 97 84 78 75 76 78 80 80 77 75 76 75 73 71 69 69 70 74 82 90 83 75
305 239 200 192 173 178 209 340 20 29 353 348 38 360 293 323 318 268 306 344 320 333 270 238 248 241 221 220 218 216 219 219 214 209 201 195 195 193 195 201 203 203 201 197 194 195 198 195 191 190 188 184 181 180 183 185 184 184 177 171 170 168 170 173 167 156 151 148 142 135 116 105 115 124 114 96 87 84 81 78 73 74 73 69 68 70 72 69 65 65 63 64 67 71 82 80 74
302 246 199 165 126 129 149 114 79 74 280 310 49 144 254 317 314 267 310 332 302 295 262 244 255 243 217 223 225 219 220 223 222 218 210 199 189 183 191 201 204 204 203 198 196 198 199 196 193 191 190 187 184 184 189 193 193 192 186 180 179 179 179 177 169 159 153 151 147 145 133 111 108 114 112 101 91 86 83 81 76 72 71 68 67 67 67 63 62 63 57 58 65 60 64 68 66
235 231 145 130 126 145 164 148 138 200 246 324 17 112 192 297 278 273 328 338 316 314 295 270 251 234 231 236 234 225 222 220 217 217 211 199 189 188 197 202 203 203 200 197 197 199 199 197 193 191 191 190 188 188 193 199 200 198 193 189 188 188 185 174 169 169 164 162 159 157 154 138 128 121 115 104 91 85 81 83 83 80 76 71 67 65 63 59 53 52 48 47 53 53 54 62 64
239 196 122 128 140 151 150 125 121 359 19 317 321 49 166 272 274 305 2 358 310 306 297 290 280 234 234 240 239 231 228 223 217 216 210 199 195 198 201 202 201 200 198 197 198 199 199 197 193 192 192 192 192 192 196 202 205 204 199 197 196 194 190 179 176 178 176 176 173 169 167 160 148 137 127 112 97 92 88 89 87 79 70 62 58 55 50 44 39 36 37 37 40 47 51 53 59
221 132 93 71 75 83 89 102 108 49 59 249 272 273 197 268 288 305 341 345 281 280 277 283 308 315 288 275 264 245 234 228 221 217 210 203 202 202 200 197 196 198 198 198 199 199 199 196 194 194 194 195 196 196 199 203 208 209 206 204 203 198 193 188 185 186 187 189 186 176 172 165 152 141 133 122 110 100 94 95 88 72 61 53 47 43 36 32 33 34 36 36 38 43 46 47 53
134 95 64 48 42 40 46 61 86 69 335 253 258 237 180 271 287 259 245 253 277 286 293 306 328 330 316 304 292 270 244 229 221 219 210 201 200 195 191 190 191 194 196 197 199 201 200 197 196 197 198 198 199 201 202 205 210 214 213 211 209 205 198 195 194 193 194 197 193 183 176 171 161 149 138 127 119 111 104 99 82 65 54 46 40 33 30 31 37 42 46 47 46 46 46 45 47
104 78 65 62 358 16 31 357 46 94 262 266 271 241 138 196 268 267 278 298 304 279 279 308 322 321 316 303 294 288 262 234 219 211 192 180 179 181 184 185 184 187 191 196 200 201 201 200 198 200 202 201 202 204 206 209 213 216 218 216 214 212 206 203 202 201 199 199 195 189 184 178 170 163 155 144 135 131 124 104 76 58 43 39 37 31 29 33 39 45 51 52 50 48 46 43 43
78 84 75 72 332 12 16 308 339 200 245 257 272 279 139 220 251 268 300 319 324 290 262 293 305 310 316 304 297 309 302 254 207 183 174 176 176 178 181 180 179 184 190 195 198 200 202 202 200 202 204 204 205 206 208 212 215 217 219 219 218 217 215 212 211 209 207 205 200 197 194 188 182 178 173 166 158 154 154 147 117 64 31 32 34 30 31 36 39 44 47 46 43 42 39 35 35
124 144 126 122 119 64 300 269 274 260 262 261 263 272 279 273 265 252 280 307 315 323 338 318 295 293 301 307 328 353 347 332 182 175 180 184 175 171 182 186 186 189 192 194 197 199 201 202 202 204 206 206 207 209 211 214 215 216 218 221 221 221 220 218 216 216 215 211 209 208 206 201 198 192 183 177 176 179 191 204 200 181 31 26 25 24 34 43 45 46 43 38 35 33 31 28 27
175 162 135 144 159 155 232 227 194 243 267 298 286 240 185 208 261 260 270 302 316 342 346 323 308 297 294 332 11 20 7 355 355 173 177 179 169 167 178 189 195 198 197 197 198 199 201 202 204 206 207 208 210 211 213 215 215 215 217 221 224 225 225 222 221 222 221 218 216 216 215 213 212 206 194 189 191 198 209 212 208 212 331 15 8 11 31 49 53 50 44 37 34 33 30 28 25
245 141 112 151 184 154 183 192 167 183 207 281 255 232 217 204 276 301 330 344 339 343 332 339 353 333 352 23 20 18 13 2 357 15 139 160 171 175 180 187 194 200 202 203 203 203 205 205 206 208 209 209 212 213 215 217 217 216 217 220 225 228 228 225 224 224 224 224 223 223 222 220 220 217 207 202 203 208 213 212 212 218 225 314 334 355 19 40 50 48 41 35 31 30 29 26 23
185 127 156 215 171 124 118 201 54 80 152 262 243 237 284 337 349 346 13 350 328 333 334 13 23 10 36 37 14 11 15 11 12 18 64 144 160 174 183 189 193 196 199 203 206 207 210 212 212 214 213 213 215 216 216 218 219 220 221 222 225 228 229 228 228 228 228 227 227 229 228 226 225 222 217 213 211 211 211 212 214 217 220 254 299 340 29 46 49 40 31 28 26 25 24 20 17
125 170 212 201 104 93 107 155 8 44 202 271 304 211 246 115 201 295 359 291 323 349 345 16 32 33 43 34 11 11 9 9 18 27 33 37 137 172 182 190 197 200 200 203 205 210 215 217 218 219 219 217 218 219 219 220 221 223 225 226 226 228 230 232 232 233 233 232 231 230 229 228 227 225 222 218 214 211 211 213 215 213 218 236 249 201 153 99 58 39 24 20 19 18 19 14 9
120 173 191 115 122 220 55 126 142 127 228 282 314 279 235 199 216 206 189 199 45 3 349 24 36 31 33 23 16 16 15 17 19 21 26 24 20 183 196 195 196 199 204 206 208 214 218 220 221 223 225 224 224 225 225 225 225 226 229 230 231 231 233 234 235 236 236 236 235 233 230 230 228 226 225 220 215 213 212 214 215 215 222 226 213 185 165 122 70 39 20 14 11 8 9 9 4
20 42 22 36 132 160 153 134 163 182 215 259 306 315 265 228 224 176 175 196 200 342 5 37 31 16 14 8 11 20 29 33 28 22 24 21 18 15 357 214 206 202 204 206 209 216 220 223 224 226 230 231 230 231 232 232 230 230 231 232 233 235 235 236 237 238 239 240 239 237 234 234 231 227 226 222 219 216 215 216 219 223 229 230 215 194 173 123 62 17 360 357 351 347 348 349 344
6 22 346 339 78 117 167 97 117 139 161 190 229 288 266 251 227 167 167 192 208 200 111 64 24 6 1 349 357 14 32 37 32 32 33 28 28 31 33 21 255 217 210 210 211 217 221 223 224 225 229 231 231 233 236 237 235 233 234 234 235 236 236 237 238 239 241 243 242 241 239 237 235 230 226 223 220 219 219 222 226 231 235 238 228 211 197 230 314 328 334 335 331 328 326 324 324
154 171 214 179 138 132 153 291 310 108 147 171 165 233 267 260 221 192 178 186 214 212 151 91 38 7 353 342 344 357 22 31 20 18 26 29 37 45 49 50 48 53 76 219 222 224 224 224 225 226 227 228 229 232 234 236 236 234 235 236 236 237 237 237 237 239 241 242 243 243 241 239 236 232 226 224 222 221 222 226 231 236 240 242 238 229 234 268 299 313 323 328 326 323 322 322 326